Terminal Aerodrome Forecast
Issued by NWS Denver/Boulder, CO

Home | Current Version | Previous Version | Text Only | Print | Product List | Glossary On
Versions: 1 2 3 4 5 6 7 8 9 10 11 12 13 14 15 16 17 18 19 20 21 22 23 24 25 26 27 28 29 30 31 32 33 34 35 36 37 38 39 40 41 42 43 44 45 46 47 48 49 50
000
FTUS45 KBOU 300520
TAFDEN
TAF
KDEN 300520Z 3006/0112 35006KT 3SM -SN BR SCT003 BKN013 OVC020
      TEMPO 3006/3007 1SM -SN BR SCT003 BKN010
     FM300800 32008KT 5SM -SN BR BKN014 OVC025
     FM300900 33008KT P6SM VCSH SCT015 OVC030
      TEMPO 3009/3011 4SM -SN BR BKN014
     FM301100 32010KT 2SM BR VCSH SCT013 OVC028
      TEMPO 3011/3015 1/2SM -SN FZFG BKN006
     FM301700 36009KT P6SM VCSH SCT010 OVC025
      TEMPO 3018/3022 2SM -SN BR OVC014
     FM302200 36012G20KT P6SM VCSH SCT010 OVC020
      TEMPO 3022/0102 2SM -SN BR FEW005 OVC010
     FM010600 34008KT 3SM BR SCT004 OVC010=

USA.gov is the U.S. government's official web portal to all federal, state and local government web resources and services.